RH
66 90 57 66 57 36 38 43 47 51 55 51 59 56 61 64 66 69 62 72 66 66 66 68 63 56 47 44 45 45 46 50
57 40 32 34 35 40 38 40 42 45 54 58 60 56 69 70 72 75 76 78 79 75 65 71 79 77 71 60 57 55 50 47
31 33 34 38 35 35 40 46 51 54 60 60 60 62 70 72 73 76 77 79 85 94 96 94 89 88 73 62 56 46 34 33
33 35 36 37 44 50 53 55 58 59 63 64 65 66 70 70 72 77 83 95 91 91 90 82 76 66 52 43 34 30 31 32
40 42 45 49 54 54 56 60 62 63 65 64 64 65 68 70 75 83 78 70 65 65 63 59 56 56 48 43 39 36 33 29
48 53 54 54 53 55 60 64 64 65 65 66 67 69 73 80 88 73 62 50 58 60 60 56 51 50 49 44 35 34 34 30
53 56 55 52 50 54 60 68 74 74 73 74 69 75 82 79 60 49 54 61 56 40 36 35 30 33 28 24 22 24 25 24
58 57 54 49 41 50 61 72 74 80 75 73 70 59 46 45 48 56 60 51 40 33 26 22 22 22 21 18 15 15 22 32
59 56 45 39 48 54 45 44 46 46 45 45 45 41 41 47 59 62 51 32 23 22 22 19 14 10 12 30 54 65 79 91
65 60 48 45 46 53 53 56 59 52 46 45 43 44 45 43 34 24 22 21 19 14 10 10 17 37 54 80 91 98 96 86
92 68 58 57 60 61 64 69 67 55 51 50 47 45 34 27 27 18 13 9 8 10 21 40 58 66 84 86 91 100 97 96
96 96 95 97 100 91 77 74 65 62 58 50 43 30 26 23 12 6 8 10 15 36 54 65 70 68 67 74 80 84 80 89
91 98 100 99 100 86 79 74 70 62 52 42 35 26 11 6 6 6 10 27 47 54 69 83 96 99 80 78 76 83 88 94
96 97 98 100 99 87 85 78 66 56 47 28 10 8 7 6 7 12 32 60 80 97 95 92 94 92 89 71 60 82 61 35
98 100 100 95 93 94 85 64 53 32 13 10 11 11 8 11 20 39 79 94 97 97 92 88 89 86 82 94 85 30 27 27
96 96 83 100 100 89 69 53 32 19 17 14 11 9 9 16 47 74 84 81 84 85 91 87 77 60 92 41 29 30 28 26
92 84 96 100 96 86 67 49 26 18 16 13 11 11 20 42 55 79 92 97 100 88 38 28 67 78 64 26 26 26 24 22
85 90 100 95 88 74 49 31 26 24 21 18 14 15 33 57 76 83 92 91 36 28 34 64 66 46 32 18 26 31 37 41
81 99 93 90 62 48 58 48 35 25 44 47 26 27 45 66 95 100 92 28 27 26 21 20 22 48 43 42 58 62 64 68
Wind_Speed
15 15 14 16 21 20 20 21 25 25 25 25 26 26 25 25 25 27 29 30 32 33 33 34 36 37 35 35 36 37 40 41
27 24 24 22 22 23 25 26 27 24 26 27 27 26 27 29 32 36 36 37 37 39 41 41 41 44 46 43 42 44 43 42
19 20 21 21 18 16 15 19 21 23 28 29 29 30 32 35 37 41 42 44 44 45 45 45 48 50 49 44 44 45 42 41
14 13 12 13 14 15 19 22 24 25 27 31 32 33 37 39 42 42 42 46 48 51 53 49 48 45 43 42 41 42 46 44
11 12 13 14 17 22 25 27 29 29 30 34 35 37 41 44 45 48 51 47 48 47 45 46 44 41 42 44 47 50 52 53
12 14 16 19 22 25 27 30 32 33 34 36 39 42 44 46 49 54 55 54 48 45 43 41 42 43 48 52 55 57 57 57
15 18 21 26 26 24 27 28 31 34 35 37 40 45 48 51 55 53 48 44 40 40 43 46 49 52 55 57 58 58 58 58
17 23 26 31 32 29 26 28 30 36 39 42 46 50 49 46 44 42 39 40 43 46 49 51 55 58 60 61 60 57 53 52
24 25 29 30 27 25 24 26 30 33 38 41 40 40 42 40 39 39 43 47 49 52 56 59 61 61 55 48 45 45 39 36
25 29 30 30 28 27 27 29 35 34 34 34 37 37 37 38 38 41 46 50 54 57 58 56 49 42 40 37 34 35 37 37
20 25 27 30 32 35 39 43 42 37 35 37 39 37 36 38 43 48 51 53 55 53 48 40 36 34 34 32 31 33 30 28
18 20 23 25 25 33 41 40 37 35 37 35 36 37 41 46 49 52 51 53 51 43 37 33 32 33 33 32 33 35 37 38
19 21 22 24 33 41 40 35 33 35 34 35 38 42 44 47 49 51 49 44 40 37 32 27 25 24 31 34 36 38 36 34
21 24 27 30 39 44 37 34 36 34 34 37 38 41 43 45 46 45 42 37 31 25 26 29 32 34 37 39 37 31 33 34
26 28 31 41 43 42 33 35 34 34 34 38 41 43 44 43 43 41 32 32 29 27 33 37 37 39 38 30 29 32 33 33
32 41 49 43 36 31 34 33 33 36 37 40 44 44 43 42 38 29 29 32 33 34 35 38 35 33 29 34 31 33 33 34
43 50 41 37 30 28 30 33 35 39 40 43 45 43 41 40 37 35 34 32 33 34 34 33 31 28 34 35 34 37 37 36
48 45 33 28 30 30 32 35 38 42 45 45 45 41 39 37 36 35 32 30 32 33 32 31 31 32 37 36 35 36 36 36
43 30 33 32 29 30 36 39 42 44 40 41 41 39 37 35 32 27 29 32 33 33 32 33 34 32 36 35 34 35 35 35
Wind_Direction
221 227 226 226 235 251 260 263 266 269 276 281 283 288 291 295 298 295 299 301 300 298 299 298 301 304 300 293 291 290 290 287
219 242 238 243 250 258 262 265 266 274 271 275 275 279 282 293 294 294 293 293 294 295 295 295 296 298 298 292 291 291 290 287
233 235 239 249 261 265 268 270 275 274 278 278 278 277 282 286 284 288 293 293 291 285 287 290 291 291 292 289 290 291 288 288
225 233 242 254 266 281 290 288 286 284 280 275 276 277 280 285 288 290 287 299 298 298 294 291 291 290 290 293 293 293 292 291
238 252 266 278 290 298 296 289 285 281 276 278 279 282 287 289 292 295 301 299 298 299 296 295 294 293 291 292 292 290 288 285
265 278 289 298 302 295 290 286 284 284 286 285 286 288 289 292 297 301 301 301 301 299 298 296 294 290 286 286 285 284 283 284
270 281 304 311 309 297 291 290 293 295 295 295 296 295 296 296 297 297 296 298 299 299 295 293 291 289 287 286 285 284 282 283
301 309 315 314 307 298 296 299 298 297 296 294 295 296 298 297 296 297 299 298 296 295 294 292 291 290 290 291 293 291 290 285
311 315 315 306 301 301 305 303 302 301 298 298 300 302 302 303 302 301 303 303 301 297 294 295 295 299 302 299 296 295 292 291
306 305 305 309 300 302 304 308 312 311 305 304 308 310 309 307 306 305 301 297 294 297 300 303 306 300 295 293 293 297 298 295
300 302 301 307 304 305 311 316 317 315 314 315 314 311 305 304 305 299 299 301 305 307 309 308 303 299 296 294 295 298 293 281
304 306 310 317 311 317 315 311 310 312 316 314 310 306 305 305 306 308 311 309 311 312 308 304 302 302 300 299 298 296 296 297
306 306 300 295 306 316 314 310 308 311 310 307 307 307 308 309 311 310 313 311 310 308 301 304 308 305 302 302 298 297 296 297
298 290 295 302 309 311 307 305 310 311 308 306 307 307 309 308 310 312 312 310 313 302 299 302 298 296 296 299 296 293 291 294
303 301 303 304 309 303 305 309 309 308 308 310 310 311 310 313 314 311 310 306 302 294 295 302 301 302 303 299 297 298 294 294
291 301 309 313 295 304 310 310 308 308 308 308 307 310 312 314 314 311 302 301 299 301 304 305 304 305 301 300 302 297 296 295
311 310 311 296 300 316 315 309 307 307 309 308 308 313 315 314 314 317 314 310 305 306 308 306 307 307 296 304 302 299 298 297
312 317 298 308 319 314 309 310 311 310 310 311 311 314 315 314 312 311 310 310 313 313 311 309 307 307 301 308 304 301 299 298
315 306 315 318 318 313 316 315 313 311 309 308 310 315 316 317 313 310 307 314 313 312 311 311 311 311 307 309 307 303 301 299